| time (UTC) | temp C | wind direction | speed KPH | gust KPH | rain 1hr cm | rain 24hr cm | rain mn cm | humidity % | barometer mb |
| 20260504202003 | 11 | 360 | 12.9 | 35.4 | 0.00 | 0.00 | 0.00 | 42 | 1010.5 |
| 20260504201803 | 11 | 1 | 12.9 | 35.4 | 0.00 | 0.00 | 0.00 | 44 | 1010.5 |
| 20260504201603 | 11 | 3 | 16.1 | 38.6 | 0.00 | 0.00 | 0.00 | 42 | 1010.5 |
| 20260504201424 | 11 | 2 | 16.1 | 38.6 | 0.00 | 0.00 | 0.00 | 42 | 1010.5 |
| 20260504201203 | 11 | 1 | 22.5 | 38.6 | 0.00 | 0.00 | 0.00 | 42 | 1010.4 |
| 20260504201003 | 11 | 359 | 11.3 | 38.6 | 0.00 | 0.00 | 0.00 | 43 | 1010.4 |
| 20260504200803 | 11 | 2 | 24.1 | 41.8 | 0.00 | 0.00 | 0.00 | 43 | 1010.5 |
| 20260504200603 | 11 | 2 | 17.7 | 41.8 | 0.00 | 0.00 | 0.00 | 44 | 1010.5 |
| 20260504200403 | 11 | 3 | 11.3 | 41.8 | 0.00 | 0.00 | 0.00 | 44 | 1010.5 |
| 20260504200203 | 11 | 1 | 20.9 | 41.8 | 0.00 | 0.00 | 0.00 | 43 | 1010.5 |
| 20260504200003 | 11 | 1 | 25.7 | 41.8 | 0.00 | 0.00 | 0.00 | 42 | 1010.4 |
| 20260504195824 | 11 | 2 | 20.9 | 43.5 | 0.00 | 0.00 | 0.00 | 42 | 1010.5 |
| 20260504195603 | 11 | 357 | 17.7 | 43.5 | 0.00 | 0.00 | 0.00 | 41 | 1010.5 |
| 20260504195403 | 11 | 353 | 22.5 | 43.5 | 0.00 | 0.00 | 0.00 | 40 | 1010.5 |
| 20260504195203 | 11 | 356 | 24.1 | 43.5 | 0.00 | 0.00 | 0.00 | 40 | 1010.5 |
| 20260504195003 | 11 | 351 | 24.1 | 43.5 | 0.00 | 0.00 | 0.00 | 40 | 1010.7 |
| 20260504194803 | 11 | 343 | 20.9 | 51.5 | 0.00 | 0.00 | 0.00 | 40 | 1010.6 |
| 20260504194603 | 11 | 346 | 22.5 | 51.5 | 0.00 | 0.00 | 0.00 | 42 | 1010.6 |
| 20260504194424 | 11 | 347 | 19.3 | 51.5 | 0.00 | 0.00 | 0.00 | 41 | 1010.5 |
| 20260504194203 | 11 | 345 | 16.1 | 51.5 | 0.00 | 0.00 | 0.00 | 41 | 1010.5 |
| 20260504194003 | 11 | 346 | 20.9 | 56.3 | 0.00 | 0.00 | 0.00 | 42 | 1010.6 |
| 20260504193803 | 10 | 348 | 20.9 | 56.3 | 0.00 | 0.00 | 0.00 | 43 | 1010.5 |
| 20260504193603 | 10 | 348 | 29.0 | 56.3 | 0.00 | 0.00 | 0.00 | 43 | 1010.5 |
| 20260504193403 | 10 | 350 | 24.1 | 56.3 | 0.00 | 0.00 | 0.00 | 43 | 1010.5 |
| 20260504193203 | 10 | 350 | 29.0 | 56.3 | 0.00 | 0.00 | 0.00 | 43 | 1010.5 |
| 20260504193003 | 10 | 352 | 32.2 | 45.1 | 0.00 | 0.00 | 0.00 | 43 | 1010.5 |
| 20260504192803 | 11 | 351 | 27.4 | 45.1 | 0.00 | 0.00 | 0.00 | 43 | 1010.5 |
| 20260504192624 | 11 | 350 | 20.9 | 41.8 | 0.00 | 0.00 | 0.00 | 43 | 1010.5 |
| 20260504192403 | 11 | 349 | 24.1 | 40.2 | 0.00 | 0.00 | 0.00 | 43 | 1010.5 |
| 20260504192203 | 11 | 349 | 20.9 | 38.6 | 0.00 | 0.00 | 0.00 | 43 | 1010.4 |
| 20260504192003 | 11 | 346 | 22.5 | 38.6 | 0.00 | 0.00 | 0.00 | 44 | 1010.5 |
| 20260504191803 | 11 | 353 | 17.7 | 38.6 | 0.00 | 0.00 | 0.00 | 44 | 1010.4 |
| 20260504191603 | 11 | 357 | 19.3 | 38.6 | 0.00 | 0.00 | 0.00 | 43 | 1010.4 |
| 20260504191424 | 11 | 357 | 27.4 | 38.6 | 0.00 | 0.00 | 0.00 | 43 | 1010.5 |
| 20260504191203 | 11 | 356 | 14.5 | 41.8 | 0.00 | 0.00 | 0.00 | 45 | 1010.4 |
| 20260504191003 | 11 | 352 | 20.9 | 41.8 | 0.00 | 0.00 | 0.00 | 45 | 1010.4 |
| 20260504190803 | 11 | 348 | 16.1 | 41.8 | 0.00 | 0.00 | 0.00 | 45 | 1010.4 |
| 20260504190603 | 11 | 345 | 19.3 | 41.8 | 0.00 | 0.00 | 0.00 | 45 | 1010.5 |
| 20260504190403 | 11 | 343 | 27.4 | 41.8 | 0.00 | 0.00 | 0.00 | 44 | 1010.4 |
| 20260504190203 | 11 | 345 | 25.7 | 43.5 | 0.00 | 0.00 | 0.00 | 44 | 1010.4 |
| 20260504190004 | 11 | 347 | 16.1 | 43.5 | 0.00 | 0.00 | 0.00 | 45 | 1010.4 |
| 20260504185824 | 11 | 347 | 17.7 | 43.5 | 0.00 | 0.00 | 0.00 | 45 | 1010.4 |
| 20260504185603 | 11 | 348 | 27.4 | 43.5 | 0.00 | 0.00 | 0.00 | 44 | 1010.5 |
| 20260504185424 | 11 | 348 | 29.0 | 43.5 | 0.00 | 0.00 | 0.00 | 44 | 1010.5 |
| 20260504185224 | 11 | 347 | 17.7 | 40.2 | 0.00 | 0.00 | 0.00 | 44 | 1010.3 |
| 20260504185003 | 11 | 347 | 22.5 | 40.2 | 0.00 | 0.00 | 0.00 | 44 | 1010.4 |
| 20260504184824 | 11 | 350 | 12.9 | 38.6 | 0.00 | 0.00 | 0.00 | 45 | 1010.3 |
| 20260504184624 | 11 | 351 | 17.7 | 38.6 | 0.00 | 0.00 | 0.00 | 44 | 1010.4 |
| 20260504184403 | 11 | 350 | 20.9 | 38.6 | 0.00 | 0.00 | 0.00 | 45 | 1010.5 |
| 20260504184203 | 11 | 347 | 14.5 | 35.4 | 0.00 | 0.00 | 0.00 | 45 | 1010.4 |
| 20260504184003 | 11 | 342 | 16.1 | 35.4 | 0.00 | 0.00 | 0.00 | 45 | 1010.5 |
| 20260504183803 | 11 | 332 | 17.7 | 35.4 | 0.00 | 0.00 | 0.00 | 45 | 1010.3 |
| 20260504183624 | 11 | 325 | 20.9 | 33.8 | 0.00 | 0.00 | 0.00 | 46 | 1010.4 |
| 20260504183403 | 11 | 320 | 17.7 | 35.4 | 0.00 | 0.00 | 0.00 | 46 | 1010.5 |
| 20260504183203 | 11 | 323 | 16.1 | 35.4 | 0.00 | 0.00 | 0.00 | 46 | 1010.4 |
| 20260504183003 | 11 | 330 | 17.7 | 35.4 | 0.00 | 0.00 | 0.00 | 46 | 1010.3 |
| 20260504182803 | 11 | 337 | 16.1 | 37.0 | 0.00 | 0.00 | 0.00 | 46 | 1010.4 |
| 20260504182603 | 11 | 345 | 22.5 | 37.0 | 0.00 | 0.00 | 0.00 | 46 | 1010.4 |
| 20260504182403 | 11 | 352 | 20.9 | 40.2 | 0.00 | 0.00 | 0.00 | 46 | 1010.4 |
| 20260504182203 | 11 | 355 | 20.9 | 40.2 | 0.00 | 0.00 | 0.00 | 46 | 1010.5 |
| 20260504182003 | 11 | 358 | 22.5 | 40.2 | 0.00 | 0.00 | 0.00 | 48 | 1010.3 |
| 20260504181803 | 11 | 357 | 20.9 | 40.2 | 0.00 | 0.00 | 0.00 | 48 | 1010.3 |
| 20260504181603 | 11 | 352 | 22.5 | 40.2 | 0.00 | 0.00 | 0.00 | 47 | 1010.4 |
| 20260504181403 | 11 | 348 | 20.9 | 35.4 | 0.00 | 0.00 | 0.00 | 47 | 1010.4 |
| 20260504181224 | 11 | 344 | 22.5 | 45.1 | 0.00 | 0.00 | 0.00 | 47 | 1010.4 |
| 20260504181003 | 11 | 340 | 17.7 | 45.1 | 0.00 | 0.00 | 0.00 | 47 | 1010.4 |
| 20260504180803 | 11 | 344 | 17.7 | 45.1 | 0.00 | 0.00 | 0.00 | 48 | 1010.5 |
| 20260504180603 | 11 | 348 | 20.9 | 45.1 | 0.00 | 0.00 | 0.00 | 48 | 1010.5 |
| 20260504180403 | 11 | 349 | 22.5 | 45.1 | 0.00 | 0.00 | 0.00 | 48 | 1010.5 |
| 20260504180203 | 11 | 352 | 22.5 | 38.6 | 0.00 | 0.00 | 0.00 | 48 | 1010.6 |
| 20260504180003 | 11 | 353 | 20.9 | 32.2 | 0.00 | 0.00 | 0.00 | 48 | 1010.6 |
| 20260504175824 | 11 | 353 | 20.9 | 33.8 | 0.00 | 0.00 | 0.00 | 48 | 1010.5 |
| 20260504175624 | 11 | 353 | 22.5 | 33.8 | 0.00 | 0.00 | 0.00 | 49 | 1010.6 |
| 20260504175403 | 11 | 351 | 17.7 | 41.8 | 0.00 | 0.00 | 0.00 | 49 | 1010.5 |
| 20260504175224 | 11 | 353 | 14.5 | 41.8 | 0.00 | 0.00 | 0.00 | 49 | 1010.5 |
| 20260504175003 | 11 | 353 | 12.9 | 41.8 | 0.00 | 0.00 | 0.00 | 49 | 1010.6 |
| 20260504174803 | 11 | 351 | 20.9 | 41.8 | 0.00 | 0.00 | 0.00 | 48 | 1010.6 |
| 20260504174603 | 11 | 348 | 24.1 | 41.8 | 0.00 | 0.00 | 0.00 | 48 | 1010.6 |
| 20260504174403 | 11 | 346 | 20.9 | 37.0 | 0.00 | 0.00 | 0.00 | 48 | 1010.7 |
| 20260504174203 | 11 | 342 | 19.3 | 37.0 | 0.00 | 0.00 | 0.00 | 47 | 1010.6 |
| 20260504174024 | 11 | 336 | 11.3 | 37.0 | 0.00 | 0.00 | 0.00 | 48 | 1010.6 |
| 20260504173803 | 11 | 333 | 14.5 | 37.0 | 0.00 | 0.00 | 0.00 | 47 | 1010.6 |
| 20260504173603 | 11 | 329 | 19.3 | 38.6 | 0.00 | 0.00 | 0.00 | 47 | 1010.6 |
| 20260504173403 | 11 | 331 | 17.7 | 38.6 | 0.00 | 0.00 | 0.00 | 47 | 1010.7 |
| 20260504173224 | 11 | 330 | 24.1 | 38.6 | 0.00 | 0.00 | 0.00 | 46 | 1010.6 |
| 20260504173003 | 11 | 335 | 16.1 | 38.6 | 0.00 | 0.00 | 0.00 | 47 | 1010.7 |
| 20260504172824 | 11 | 337 | 22.5 | 38.6 | 0.00 | 0.00 | 0.00 | 48 | 1010.7 |
| 20260504172603 | 11 | 341 | 17.7 | 37.0 | 0.00 | 0.00 | 0.00 | 47 | 1010.7 |
| 20260504172403 | 11 | 339 | 22.5 | 37.0 | 0.00 | 0.00 | 0.00 | 48 | 1010.6 |
| 20260504172204 | 11 | 340 | 22.5 | 32.2 | 0.00 | 0.00 | 0.00 | 48 | 1010.6 |
| 20260504172004 | 11 | 338 | 16.1 | 33.8 | 0.00 | 0.00 | 0.00 | 49 | 1010.6 |
| 20260504171825 | 11 | 341 | 16.1 | 33.8 | 0.00 | 0.00 | 0.00 | 49 | 1010.6 |
| 20260504171603 | 11 | 343 | 22.5 | 35.4 | 0.00 | 0.00 | 0.00 | 49 | 1010.7 |
| 20260504171403 | 11 | 347 | 16.1 | 43.5 | 0.00 | 0.00 | 0.00 | 50 | 1010.6 |
| 20260504171224 | 11 | 346 | 22.5 | 43.5 | 0.00 | 0.00 | 0.00 | 49 | 1010.5 |
| 20260504171003 | 11 | 349 | 20.9 | 43.5 | 0.00 | 0.00 | 0.00 | 49 | 1010.6 |
| 20260504170803 | 10 | 347 | 20.9 | 43.5 | 0.00 | 0.00 | 0.00 | 49 | 1010.6 |
| 20260504170603 | 11 | 350 | 22.5 | 43.5 | 0.00 | 0.00 | 0.00 | 48 | 1010.5 |
| 20260504170403 | 11 | 345 | 16.1 | 38.6 | 0.00 | 0.00 | 0.00 | 49 | 1010.6 |
| 20260504170224 | 11 | 342 | 19.3 | 43.5 | 0.00 | 0.00 | 0.00 | 49 | 1010.6 |
| 20260504160403 | 10 | 350 | 24.1 | 46.7 | 0.00 | 0.00 | 0.00 | 50 | 1010.0 |
| 20260504160203 | 10 | 349 | 22.5 | 46.7 | 0.00 | 0.00 | 0.00 | 50 | 1010.1 |
| 20260504151003 | 10 | 344 | 25.7 | 41.8 | 0.00 | 0.00 | 0.00 | 50 | 1009.8 |
| 20260504150803 | 10 | 340 | 14.5 | 37.0 | 0.00 | 0.00 | 0.00 | 51 | 1009.9 |
| 20260504150603 | 10 | 339 | 17.7 | 37.0 | 0.00 | 0.00 | 0.00 | 51 | 1009.8 |
| 20260504150403 | 10 | 341 | 19.3 | 38.6 | 0.00 | 0.00 | 0.00 | 51 | 1009.9 |
| 20260504150203 | 10 | 341 | 19.3 | 38.6 | 0.00 | 0.00 | 0.00 | 51 | 1009.9 |
| 20260504141203 | 9 | 344 | 17.7 | 32.2 | 0.00 | 0.00 | 0.00 | 55 | 1009.6 |
| 20260504141003 | 9 | 344 | 12.9 | 30.6 | 0.00 | 0.00 | 0.00 | 55 | 1009.6 |
| 20260504140803 | 9 | 344 | 16.1 | 30.6 | 0.00 | 0.00 | 0.00 | 55 | 1009.6 |
| 20260504140603 | 9 | 344 | 17.7 | 30.6 | 0.00 | 0.00 | 0.00 | 55 | 1009.6 |
| 20260504140403 | 9 | 346 | 11.3 | 29.0 | 0.00 | 0.00 | 0.00 | 55 | 1009.7 |
| 20260504140203 | 8 | 342 | 12.9 | 32.2 | 0.00 | 0.00 | 0.00 | 55 | 1009.6 |
| 20260504130603 | 8 | 330 | 14.5 | 24.1 | 0.00 | 0.00 | 0.00 | 57 | 1009.5 |
| 20260504130403 | 8 | 331 | 9.7 | 24.1 | 0.00 | 0.00 | 0.00 | 57 | 1009.5 |
| 20260504130224 | 8 | 332 | 12.9 | 24.1 | 0.00 | 0.00 | 0.00 | 57 | 1009.4 |
| 20260504120203 | 8 | 345 | 14.5 | 30.6 | 0.00 | 0.00 | 0.00 | 57 | 1008.1 |
| 20260504110603 | 11 | 304 | 12.9 | 22.5 | 0.00 | 0.00 | 0.00 | 46 | 1006.0 |
| 20260504110403 | 11 | 299 | 14.5 | 22.5 | 0.00 | 0.00 | 0.00 | 47 | 1005.8 |
| 20260504110203 | 11 | 298 | 14.5 | 22.5 | 0.00 | 0.00 | 0.00 | 46 | 1005.7 |
| 20260504100603 | 11 | 303 | 16.1 | 25.7 | 0.00 | 0.00 | 0.00 | 46 | 1005.3 |
| 20260504100404 | 11 | 301 | 12.9 | 22.5 | 0.00 | 0.00 | 0.00 | 46 | 1005.2 |
| 20260504100203 | 11 | 293 | 11.3 | 20.9 | 0.00 | 0.00 | 0.00 | 46 | 1005.3 |
| 20260504082003 | 11 | 249 | 12.9 | 24.1 | 0.00 | 0.00 | 0.00 | 48 | 1005.2 |
| 20260504081803 | 11 | 251 | 14.5 | 24.1 | 0.00 | 0.00 | 0.00 | 48 | 1005.3 |
| 20260504081603 | 11 | 253 | 12.9 | 24.1 | 0.00 | 0.00 | 0.00 | 48 | 1005.3 |
| 20260504081403 | 12 | 258 | 14.5 | 24.1 | 0.00 | 0.00 | 0.00 | 48 | 1005.2 |
| 20260504081203 | 12 | 261 | 12.9 | 22.5 | 0.00 | 0.00 | 0.00 | 48 | 1005.3 |
| 20260504081003 | 12 | 265 | 12.9 | 22.5 | 0.00 | 0.00 | 0.00 | 48 | 1005.3 |
| 20260504080803 | 12 | 265 | 16.1 | 22.5 | 0.00 | 0.00 | 0.00 | 48 | 1005.3 |
| 20260504080624 | 12 | 265 | 14.5 | 22.5 | 0.00 | 0.00 | 0.00 | 48 | 1005.3 |
| 20260504080403 | 12 | 264 | 16.1 | 22.5 | 0.00 | 0.00 | 0.00 | 48 | 1005.4 |
| 20260504080224 | 12 | 263 | 16.1 | 22.5 | 0.00 | 0.00 | 0.00 | 48 | 1005.4 |
| 20260504070404 | 12 | 238 | 14.5 | 22.5 | 0.00 | 0.00 | 0.00 | 53 | 1005.7 |
| 20260504070203 | 12 | 234 | 12.9 | 22.5 | 0.00 | 0.00 | 0.00 | 53 | 1005.7 |
| 20260504060204 | 11 | 246 | 12.9 | 16.1 | 0.00 | 0.00 | 0.00 | 53 | 1006.5 |
| 20260504050604 | 12 | 264 | 12.9 | 20.9 | 0.00 | 0.00 | 0.00 | 51 | 1006.7 |
| 20260504050404 | 12 | 260 | 11.3 | 20.9 | 0.00 | 0.00 | 0.00 | 51 | 1006.8 |
| 20260504050204 | 12 | 258 | 14.5 | 20.9 | 0.00 | 0.00 | 0.00 | 51 | 1006.8 |
| 20260504050004 | 12 | 256 | 12.9 | 24.1 | 0.00 | 0.00 | 0.00 | 51 | 1006.8 |
| 20260504045804 | 12 | 254 | 14.5 | 24.1 | 0.00 | 0.00 | 0.00 | 51 | 1006.8 |
| 20260504045604 | 12 | 254 | 14.5 | 24.1 | 0.00 | 0.00 | 0.00 | 51 | 1006.7 |
| 20260504045405 | 12 | 255 | 12.9 | 24.1 | 0.00 | 0.00 | 0.00 | 51 | 1006.7 |
| 20260504045204 | 12 | 256 | 14.5 | 24.1 | 0.00 | 0.00 | 0.00 | 52 | 1006.6 |
| 20260504045004 | 12 | 256 | 16.1 | 24.1 | 0.00 | 0.00 | 0.00 | 52 | 1006.7 |
| 20260504044804 | 12 | 256 | 16.1 | 24.1 | 0.00 | 0.00 | 0.00 | 52 | 1006.6 |
| 20260504044605 | 12 | 255 | 14.5 | 24.1 | 0.00 | 0.00 | 0.00 | 52 | 1006.7 |
| 20260504044404 | 12 | 253 | 14.5 | 20.9 | 0.00 | 0.00 | 0.00 | 52 | 1006.6 |
| 20260504044204 | 12 | 250 | 14.5 | 20.9 | 0.00 | 0.00 | 0.00 | 52 | 1006.6 |
| 20260504044004 | 12 | 246 | 14.5 | 22.5 | 0.00 | 0.00 | 0.00 | 52 | 1006.6 |
| 20260504043804 | 12 | 245 | 14.5 | 24.1 | 0.00 | 0.00 | 0.00 | 52 | 1006.6 |
| 20260504043604 | 12 | 243 | 12.9 | 24.1 | 0.00 | 0.00 | 0.00 | 52 | 1006.6 |
| 20260504043404 | 12 | 246 | 14.5 | 24.1 | 0.00 | 0.00 | 0.00 | 52 | 1006.6 |
| 20260504043204 | 12 | 247 | 14.5 | 24.1 | 0.00 | 0.00 | 0.00 | 52 | 1006.6 |
| 20260504043004 | 12 | 249 | 16.1 | 25.7 | 0.00 | 0.00 | 0.00 | 53 | 1006.5 |
| 20260504042804 | 12 | 248 | 14.5 | 25.7 | 0.00 | 0.00 | 0.00 | 53 | 1006.7 |
| 20260504042625 | 12 | 248 | 16.1 | 25.7 | 0.00 | 0.00 | 0.00 | 53 | 1006.6 |
| 20260504042425 | 12 | 246 | 14.5 | 25.7 | 0.00 | 0.00 | 0.00 | 53 | 1006.6 |
| 20260504042204 | 12 | 247 | 16.1 | 27.4 | 0.00 | 0.00 | 0.00 | 53 | 1006.6 |
| 20260504042004 | 12 | 246 | 16.1 | 27.4 | 0.00 | 0.00 | 0.00 | 54 | 1006.6 |
| 20260504041804 | 12 | 247 | 17.7 | 27.4 | 0.00 | 0.00 | 0.00 | 53 | 1006.6 |
| 20260504041604 | 13 | 246 | 16.1 | 29.0 | 0.00 | 0.00 | 0.00 | 54 | 1006.6 |
| 20260504041404 | 13 | 245 | 16.1 | 29.0 | 0.00 | 0.00 | 0.00 | 54 | 1006.6 |
| 20260504041204 | 13 | 243 | 16.1 | 32.2 | 0.00 | 0.00 | 0.00 | 54 | 1006.7 |
| 20260504041026 | 13 | 242 | 16.1 | 32.2 | 0.00 | 0.00 | 0.00 | 54 | 1006.6 |
| 20260504040825 | 13 | 239 | 19.3 | 32.2 | 0.00 | 0.00 | 0.00 | 54 | 1006.6 |
| 20260504040604 | 13 | 238 | 20.9 | 32.2 | 0.00 | 0.00 | 0.00 | 54 | 1006.7 |
| 20260504040404 | 12 | 236 | 19.3 | 32.2 | 0.00 | 0.00 | 0.00 | 55 | 1006.7 |
| 20260504040204 | 12 | 234 | 17.7 | 32.2 | 0.00 | 0.00 | 0.00 | 56 | 1006.7 |
| 20260504040025 | 12 | 233 | 16.1 | 32.2 | 0.00 | 0.00 | 0.00 | 56 | 1006.7 |
| 20260504035825 | 12 | 234 | 19.3 | 32.2 | 0.00 | 0.00 | 0.00 | 57 | 1006.7 |
| 20260504035604 | 12 | 233 | 16.1 | 27.4 | 0.00 | 0.00 | 0.00 | 58 | 1006.7 |
| 20260504035425 | 12 | 235 | 17.7 | 27.4 | 0.00 | 0.00 | 0.00 | 58 | 1006.7 |
| 20260504035204 | 12 | 237 | 14.5 | 24.1 | 0.00 | 0.00 | 0.00 | 59 | 1006.8 |
| 20260504035025 | 12 | 238 | 14.5 | 24.1 | 0.00 | 0.00 | 0.00 | 59 | 1006.9 |
| 20260504034804 | 12 | 240 | 14.5 | 22.5 | 0.00 | 0.00 | 0.00 | 60 | 1006.9 |
| 20260504034604 | 12 | 241 | 14.5 | 22.5 | 0.00 | 0.00 | 0.00 | 61 | 1006.9 |
| 20260504034404 | 12 | 242 | 12.9 | 22.5 | 0.00 | 0.00 | 0.00 | 61 | 1006.9 |
| 20260504034204 | 12 | 242 | 12.9 | 20.9 | 0.00 | 0.00 | 0.00 | 62 | 1006.9 |
| 20260504034004 | 12 | 242 | 12.9 | 20.9 | 0.00 | 0.00 | 0.00 | 63 | 1007.0 |
| 20260504033804 | 12 | 242 | 12.9 | 20.9 | 0.00 | 0.00 | 0.00 | 63 | 1007.0 |
| 20260504033604 | 12 | 241 | 12.9 | 20.9 | 0.00 | 0.00 | 0.00 | 64 | 1007.1 |
| 20260504033425 | 12 | 241 | 11.3 | 19.3 | 0.00 | 0.00 | 0.00 | 64 | 1007.1 |
| 20260504033204 | 12 | 239 | 9.7 | 14.5 | 0.00 | 0.00 | 0.00 | 65 | 1007.1 |
| 20260504033004 | 12 | 236 | 8.0 | 19.3 | 0.00 | 0.00 | 0.00 | 65 | 1007.1 |
| 20260504032804 | 12 | 234 | 9.7 | 19.3 | 0.00 | 0.00 | 0.00 | 65 | 1007.1 |
| 20260504032604 | 12 | 233 | 8.0 | 20.9 | 0.00 | 0.00 | 0.00 | 64 | 1007.1 |
| 20260504032404 | 12 | 231 | 11.3 | 20.9 | 0.00 | 0.00 | 0.00 | 64 | 1007.1 |
| 20260504032204 | 12 | 230 | 12.9 | 20.9 | 0.00 | 0.00 | 0.00 | 64 | 1007.0 |
| 20260504032004 | 12 | 229 | 12.9 | 20.9 | 0.00 | 0.00 | 0.00 | 64 | 1007.0 |
| 20260504031804 | 12 | 229 | 14.5 | 20.9 | 0.00 | 0.00 | 0.00 | 64 | 1007.0 |
| 20260504031604 | 12 | 229 | 12.9 | 20.9 | 0.00 | 0.00 | 0.00 | 64 | 1007.0 |
| 20260504031404 | 12 | 228 | 12.9 | 22.5 | 0.00 | 0.00 | 0.00 | 64 | 1007.0 |
| 20260504031204 | 12 | 228 | 14.5 | 22.5 | 0.00 | 0.00 | 0.00 | 64 | 1007.0 |
| 20260504031004 | 12 | 229 | 14.5 | 24.1 | 0.00 | 0.00 | 0.00 | 64 | 1007.0 |
| 20260504030804 | 12 | 229 | 14.5 | 24.1 | 0.00 | 0.00 | 0.00 | 64 | 1007.0 |
| 20260504030604 | 12 | 228 | 14.5 | 24.1 | 0.00 | 0.00 | 0.00 | 64 | 1006.9 |
| 20260504030425 | 12 | 229 | 16.1 | 24.1 | 0.00 | 0.00 | 0.00 | 64 | 1006.9 |
| 20260504030204 | 12 | 228 | 16.1 | 24.1 | 0.00 | 0.00 | 0.00 | 64 | 1006.9 |
| 20260504030004 | 12 | 225 | 16.1 | 22.5 | 0.00 | 0.00 | 0.00 | 64 | 1006.9 |
| 20260504025804 | 12 | 224 | 14.5 | 22.5 | 0.00 | 0.00 | 0.00 | 64 | 1006.9 |
| 20260504025604 | 12 | 224 | 14.5 | 22.5 | 0.00 | 0.00 | 0.00 | 63 | 1006.9 |
| 20260504025404 | 12 | 223 | 12.9 | 22.5 | 0.00 | 0.00 | 0.00 | 63 | 1006.9 |
| 20260504025204 | 12 | 221 | 12.9 | 20.9 | 0.00 | 0.00 | 0.00 | 63 | 1006.9 |
| 20260504025025 | 12 | 220 | 12.9 | 20.9 | 0.00 | 0.00 | 0.00 | 63 | 1006.9 |
| 20260504024804 | 12 | 219 | 12.9 | 24.1 | 0.00 | 0.00 | 0.00 | 63 | 1006.9 |
| 20260504024604 | 12 | 217 | 12.9 | 24.1 | 0.00 | 0.00 | 0.00 | 63 | 1006.9 |
| 20260504024404 | 12 | 217 | 12.9 | 25.7 | 0.00 | 0.00 | 0.00 | 63 | 1006.9 |
| 20260504024204 | 12 | 218 | 14.5 | 25.7 | 0.00 | 0.00 | 0.00 | 63 | 1006.9 |
| 20260504024004 | 12 | 217 | 12.9 | 25.7 | 0.00 | 0.00 | 0.00 | 63 | 1006.9 |
| 20260504023804 | 12 | 217 | 12.9 | 25.7 | 0.00 | 0.00 | 0.00 | 63 | 1006.9 |
| 20260504023604 | 12 | 218 | 16.1 | 25.7 | 0.00 | 0.00 | 0.00 | 63 | 1006.9 |
| 20260504023404 | 12 | 218 | 16.1 | 22.5 | 0.00 | 0.00 | 0.00 | 63 | 1006.9 |
| 20260504023204 | 12 | 216 | 14.5 | 22.5 | 0.00 | 0.00 | 0.00 | 63 | 1006.9 |
| 20260504023004 | 12 | 216 | 14.5 | 22.5 | 0.00 | 0.00 | 0.00 | 63 | 1006.9 |
| 20260504022825 | 12 | 215 | 12.9 | 22.5 | 0.00 | 0.00 | 0.00 | 62 | 1006.9 |
| 20260504022625 | 12 | 214 | 16.1 | 22.5 | 0.00 | 0.00 | 0.00 | 62 | 1006.9 |
| 20260504022404 | 12 | 213 | 14.5 | 22.5 | 0.00 | 0.00 | 0.00 | 62 | 1006.9 |
| 20260504022204 | 12 | 213 | 14.5 | 22.5 | 0.00 | 0.00 | 0.00 | 62 | 1006.9 |
| 20260504022004 | 12 | 212 | 12.9 | 20.9 | 0.00 | 0.00 | 0.00 | 62 | 1006.9 |
| 20260504021804 | 12 | 212 | 14.5 | 20.9 | 0.00 | 0.00 | 0.00 | 62 | 1007.0 |
| 20260504021604 | 12 | 211 | 14.5 | 20.9 | 0.00 | 0.00 | 0.00 | 62 | 1007.0 |
| 20260504021404 | 12 | 210 | 12.9 | 20.9 | 0.00 | 0.00 | 0.00 | 62 | 1007.1 |
| 20260504021225 | 12 | 210 | 11.3 | 19.3 | 0.00 | 0.00 | 0.00 | 61 | 1007.0 |
| 20260504021004 | 12 | 210 | 12.9 | 19.3 | 0.00 | 0.00 | 0.00 | 61 | 1007.1 |
| 20260504020825 | 12 | 209 | 11.3 | 16.1 | 0.00 | 0.00 | 0.00 | 61 | 1007.1 |
| 20260504020605 | 12 | 208 | 11.3 | 20.9 | 0.00 | 0.00 | 0.00 | 60 | 1007.1 |
| 20260504020404 | 13 | 207 | 9.7 | 20.9 | 0.00 | 0.00 | 0.00 | 60 | 1007.1 |
| 20260504020225 | 13 | 207 | 9.7 | 20.9 | 0.00 | 0.00 | 0.00 | 60 | 1007.1 |
| 20260504015804 | 13 | 205 | 9.7 | 20.9 | 0.00 | 0.00 | 0.00 | 60 | 1007.1 |
| 20260504015604 | 13 | 206 | 9.7 | 20.9 | 0.00 | 0.00 | 0.00 | 59 | 1007.1 |
| 20260504015404 | 13 | 207 | 11.3 | 22.5 | 0.00 | 0.00 | 0.00 | 59 | 1007.2 |
| 20260504015225 | 13 | 207 | 11.3 | 22.5 | 0.00 | 0.00 | 0.00 | 59 | 1007.2 |
| 20260504015004 | 13 | 208 | 12.9 | 24.1 | 0.00 | 0.00 | 0.00 | 59 | 1007.2 |
| 20260504014804 | 13 | 209 | 9.7 | 24.1 | 0.00 | 0.00 | 0.00 | 58 | 1007.2 |
| 20260504014625 | 13 | 208 | 12.9 | 24.1 | 0.00 | 0.00 | 0.00 | 58 | 1007.2 |
| 20260504014425 | 13 | 207 | 14.5 | 24.1 | 0.00 | 0.00 | 0.00 | 58 | 1007.2 |
| 20260504014204 | 13 | 206 | 14.5 | 24.1 | 0.00 | 0.00 | 0.00 | 58 | 1007.2 |
| 20260504014004 | 13 | 207 | 12.9 | 25.7 | 0.00 | 0.00 | 0.00 | 57 | 1007.2 |
| 20260504013825 | 13 | 207 | 11.3 | 25.7 | 0.00 | 0.00 | 0.00 | 57 | 1007.2 |
| 20260504013604 | 13 | 209 | 11.3 | 25.7 | 0.00 | 0.00 | 0.00 | 57 | 1007.2 |
| 20260504013404 | 14 | 209 | 11.3 | 25.7 | 0.00 | 0.00 | 0.00 | 57 | 1007.3 |
| 20260504013226 | 14 | 210 | 12.9 | 25.7 | 0.00 | 0.00 | 0.00 | 56 | 1007.3 |
| 20260504013004 | 14 | 208 | 11.3 | 19.3 | 0.00 | 0.00 | 0.00 | 56 | 1007.4 |
| 20260504012804 | 14 | 206 | 11.3 | 19.3 | 0.00 | 0.00 | 0.00 | 56 | 1007.4 |
| 20260504012604 | 14 | 206 | 9.7 | 24.1 | 0.00 | 0.00 | 0.00 | 56 | 1007.5 |
| 20260504012404 | 15 | 205 | 9.7 | 24.1 | 0.00 | 0.00 | 0.00 | 55 | 1007.5 |
| 20260504012204 | 15 | 201 | 9.7 | 24.1 | 0.00 | 0.00 | 0.00 | 55 | 1007.5 |
| 20260504012004 | 15 | 202 | 11.3 | 24.1 | 0.00 | 0.00 | 0.00 | 54 | 1007.5 |
| 20260504011804 | 15 | 201 | 11.3 | 24.1 | 0.00 | 0.00 | 0.00 | 54 | 1007.6 |
| 20260504011604 | 15 | 198 | 8.0 | 19.3 | 0.00 | 0.00 | 0.00 | 54 | 1007.6 |
| 20260504011405 | 15 | 198 | 9.7 | 20.9 | 0.00 | 0.00 | 0.00 | 53 | 1007.7 |
| 20260504011204 | 15 | 200 | 11.3 | 20.9 | 0.00 | 0.00 | 0.00 | 53 | 1007.8 |
| 20260504011004 | 15 | 198 | 9.7 | 20.9 | 0.00 | 0.00 | 0.00 | 53 | 1007.8 |
| 20260504010804 | 15 | 196 | 9.7 | 20.9 | 0.00 | 0.00 | 0.00 | 53 | 1007.8 |
| 20260504010625 | 15 | 195 | 11.3 | 20.9 | 0.00 | 0.00 | 0.00 | 52 | 1008.0 |
| 20260504010404 | 15 | 195 | 9.7 | 22.5 | 0.00 | 0.00 | 0.00 | 52 | 1007.9 |
| 20260504010204 | 15 | 196 | 11.3 | 22.5 | 0.00 | 0.00 | 0.00 | 52 | 1008.0 |
| 20260504010004 | 15 | 198 | 9.7 | 22.5 | 0.00 | 0.00 | 0.00 | 52 | 1008.0 |
| 20260504005804 | 15 | 200 | 12.9 | 22.5 | 0.00 | 0.00 | 0.00 | 52 | 1008.1 |
| 20260504005604 | 15 | 202 | 12.9 | 27.4 | 0.00 | 0.00 | 0.00 | 52 | 1008.1 |
| 20260504005404 | 15 | 203 | 12.9 | 27.4 | 0.00 | 0.00 | 0.00 | 52 | 1008.2 |
| 20260504005204 | 16 | 205 | 12.9 | 27.4 | 0.00 | 0.00 | 0.00 | 52 | 1008.2 |
| 20260504005004 | 16 | 208 | 11.3 | 27.4 | 0.00 | 0.00 | 0.00 | 51 | 1008.3 |
| 20260504004804 | 16 | 207 | 14.5 | 27.4 | 0.00 | 0.00 | 0.00 | 51 | 1008.3 |
| 20260504004604 | 16 | 207 | 11.3 | 24.1 | 0.00 | 0.00 | 0.00 | 50 | 1008.3 |
| 20260504004404 | 16 | 205 | 12.9 | 24.1 | 0.00 | 0.00 | 0.00 | 50 | 1008.4 |
| 20260504004204 | 16 | 203 | 11.3 | 24.1 | 0.00 | 0.00 | 0.00 | 51 | 1008.4 |
| 20260504004004 | 16 | 199 | 9.7 | 24.1 | 0.00 | 0.00 | 0.00 | 50 | 1008.4 |
| 20260504003804 | 16 | 200 | 11.3 | 30.6 | 0.00 | 0.00 | 0.00 | 50 | 1008.4 |
| 20260504003604 | 16 | 201 | 8.0 | 30.6 | 0.00 | 0.00 | 0.00 | 50 | 1008.4 |
| 20260504003404 | 16 | 202 | 9.7 | 30.6 | 0.00 | 0.00 | 0.00 | 49 | 1008.4 |
| 20260504003204 | 16 | 204 | 11.3 | 30.6 | 0.00 | 0.00 | 0.00 | 49 | 1008.5 |
| 20260504003004 | 16 | 205 | 12.9 | 30.6 | 0.00 | 0.00 | 0.00 | 49 | 1008.5 |
| 20260504002825 | 16 | 201 | 9.7 | 29.0 | 0.00 | 0.00 | 0.00 | 49 | 1008.5 |
| 20260504002604 | 16 | 201 | 9.7 | 29.0 | 0.00 | 0.00 | 0.00 | 49 | 1008.6 |
| 20260504002404 | 16 | 202 | 11.3 | 29.0 | 0.00 | 0.00 | 0.00 | 48 | 1008.6 |
| 20260504002204 | 16 | 202 | 12.9 | 29.0 | 0.00 | 0.00 | 0.00 | 48 | 1008.6 |
| 20260504002004 | 16 | 203 | 14.5 | 29.0 | 0.00 | 0.00 | 0.00 | 49 | 1008.5 |
| 20260504001804 | 16 | 207 | 6.4 | 27.4 | 0.00 | 0.00 | 0.00 | 49 | 1008.7 |
| 20260504001604 | 16 | 207 | 9.7 | 27.4 | 0.00 | 0.00 | 0.00 | 48 | 1008.7 |
| 20260504001404 | 16 | 203 | 9.7 | 27.4 | 0.00 | 0.00 | 0.00 | 48 | 1008.8 |
| 20260504001204 | 16 | 202 | 9.7 | 27.4 | 0.00 | 0.00 | 0.00 | 48 | 1008.8 |
| 20260504001004 | 16 | 200 | 14.5 | 27.4 | 0.00 | 0.00 | 0.00 | 48 | 1008.8 |
| 20260504000825 | 16 | 199 | 11.3 | 25.7 | 0.00 | 0.00 | 0.00 | 48 | 1008.8 |
| 20260504000604 | 16 | 198 | 11.3 | 25.7 | 0.00 | 0.00 | 0.00 | 47 | 1008.9 |
| 20260504000404 | 17 | 200 | 12.9 | 25.7 | 0.00 | 0.00 | 0.00 | 46 | 1008.9 |
| 20260504000205 | 17 | 201 | 14.5 | 25.7 | 0.00 | 0.00 | 0.00 | 47 | 1008.9 |
| 20260504000004 | 17 | 199 | 14.5 | 25.7 | 0.00 | 0.00 | 0.00 | 48 | 1009.1 |
| 20260503235825 | 17 | 200 | 9.7 | 25.7 | 0.00 | 0.00 | 0.00 | 48 | 1009.1 |
| 20260503235625 | 17 | 203 | 11.3 | 25.7 | 0.00 | 0.00 | 0.00 | 47 | 1009.1 |
| 20260503235404 | 17 | 203 | 11.3 | 25.7 | 0.00 | 0.00 | 0.00 | 45 | 1009.2 |
| 20260503235205 | 17 | 204 | 16.1 | 27.4 | 0.00 | 0.00 | 0.00 | 45 | 1009.1 |
| 20260503235004 | 17 | 209 | 16.1 | 27.4 | 0.00 | 0.00 | 0.00 | 43 | 1009.2 |
| 20260503234804 | 17 | 209 | 9.7 | 27.4 | 0.00 | 0.00 | 0.00 | 43 | 1009.2 |
| 20260503234604 | 17 | 209 | 12.9 | 27.4 | 0.00 | 0.00 | 0.00 | 43 | 1009.2 |
| 20260503234404 | 17 | 209 | 16.1 | 27.4 | 0.00 | 0.00 | 0.00 | 43 | 1009.2 |
| 20260503234225 | 17 | 210 | 12.9 | 25.7 | 0.00 | 0.00 | 0.00 | 43 | 1009.2 |
| 20260503234026 | 17 | 210 | 14.5 | 25.7 | 0.00 | 0.00 | 0.00 | 43 | 1009.3 |
| 20260503233804 | 17 | 210 | 8.0 | 22.5 | 0.00 | 0.00 | 0.00 | 42 | 1009.3 |
| 20260503233604 | 17 | 207 | 8.0 | 22.5 | 0.00 | 0.00 | 0.00 | 43 | 1009.3 |
| 20260503233425 | 17 | 210 | 14.5 | 22.5 | 0.00 | 0.00 | 0.00 | 42 | 1009.4 |
| 20260503233225 | 17 | 211 | 9.7 | 20.9 | 0.00 | 0.00 | 0.00 | 42 | 1009.5 |
| 20260503233004 | 17 | 210 | 9.7 | 20.9 | 0.00 | 0.00 | 0.00 | 42 | 1009.5 |
| 20260503232804 | 17 | 213 | 12.9 | 20.9 | 0.00 | 0.00 | 0.00 | 42 | 1009.6 |
| 20260503232604 | 17 | 214 | 11.3 | 20.9 | 0.00 | 0.00 | 0.00 | 42 | 1009.5 |
| 20260503232404 | 17 | 218 | 11.3 | 20.9 | 0.00 | 0.00 | 0.00 | 44 | 1009.7 |
| 20260503232225 | 17 | 222 | 9.7 | 20.9 | 0.00 | 0.00 | 0.00 | 45 | 1009.6 |
| 20260503232004 | 17 | 225 | 11.3 | 24.1 | 0.00 | 0.00 | 0.00 | 46 | 1009.7 |
| 20260503231804 | 17 | 225 | 4.8 | 24.1 | 0.00 | 0.00 | 0.00 | 47 | 1009.8 |
| 20260503231604 | 17 | 227 | 9.7 | 24.1 | 0.00 | 0.00 | 0.00 | 48 | 1009.8 |
| 20260503231404 | 17 | 228 | 12.9 | 24.1 | 0.00 | 0.00 | 0.00 | 48 | 1009.9 |
| 20260503231205 | 17 | 232 | 12.9 | 24.1 | 0.00 | 0.00 | 0.00 | 48 | 1009.9 |
| 20260503231004 | 17 | 235 | 11.3 | 20.9 | 0.00 | 0.00 | 0.00 | 48 | 1009.9 |
| 20260503230804 | 16 | 240 | 11.3 | 20.9 | 0.00 | 0.00 | 0.00 | 49 | 1009.9 |
| 20260503230604 | 16 | 241 | 12.9 | 20.9 | 0.00 | 0.00 | 0.00 | 50 | 1009.9 |
| 20260503230425 | 16 | 240 | 9.7 | 19.3 | 0.00 | 0.00 | 0.00 | 50 | 1010.0 |
| 20260503230204 | 16 | 236 | 9.7 | 19.3 | 0.00 | 0.00 | 0.00 | 53 | 1010.0 |
| 20260503230025 | 16 | 235 | 11.3 | 19.3 | 0.00 | 0.00 | 0.00 | 52 | 1010.0 |
| 20260503225804 | 15 | 232 | 12.9 | 20.9 | 0.00 | 0.00 | 0.00 | 55 | 1010.0 |
| 20260503225604 | 15 | 234 | 12.9 | 20.9 | 0.00 | 0.00 | 0.00 | 55 | 1010.1 |
| 20260503225404 | 15 | 234 | 9.7 | 22.5 | 0.00 | 0.00 | 0.00 | 57 | 1010.2 |
| 20260503225225 | 15 | 234 | 11.3 | 22.5 | 0.00 | 0.00 | 0.00 | 56 | 1010.1 |
| 20260503225004 | 15 | 238 | 9.7 | 22.5 | 0.00 | 0.00 | 0.00 | 56 | 1010.2 |
| 20260503224825 | 15 | 240 | 9.7 | 22.5 | 0.00 | 0.00 | 0.00 | 55 | 1010.3 |
| 20260503224604 | 15 | 237 | 14.5 | 24.1 | 0.00 | 0.00 | 0.00 | 55 | 1010.4 |
| 20260503224404 | 15 | 237 | 14.5 | 24.1 | 0.00 | 0.00 | 0.00 | 53 | 1010.4 |
| 20260503224204 | 15 | 234 | 12.9 | 24.1 | 0.00 | 0.00 | 0.00 | 53 | 1010.4 |
| 20260503224004 | 16 | 235 | 12.9 | 25.7 | 0.00 | 0.00 | 0.00 | 53 | 1010.5 |
| 20260503223826 | 16 | 236 | 14.5 | 25.7 | 0.00 | 0.00 | 0.00 | 54 | 1010.5 |
| 20260503223604 | 16 | 237 | 14.5 | 25.7 | 0.00 | 0.00 | 0.00 | 53 | 1010.6 |
| 20260503223404 | 16 | 241 | 11.3 | 25.7 | 0.00 | 0.00 | 0.00 | 53 | 1010.6 |
| 20260503223205 | 16 | 242 | 16.1 | 25.7 | 0.00 | 0.00 | 0.00 | 50 | 1010.6 |
| 20260503223004 | 16 | 239 | 17.7 | 27.4 | 0.00 | 0.00 | 0.00 | 53 | 1010.6 |
| 20260503222804 | 16 | 236 | 12.9 | 32.2 | 0.00 | 0.00 | 0.00 | 53 | 1010.8 |
| 20260503222604 | 16 | 236 | 17.7 | 32.2 | 0.00 | 0.00 | 0.00 | 51 | 1010.8 |
| 20260503222404 | 16 | 233 | 12.9 | 32.2 | 0.00 | 0.00 | 0.00 | 54 | 1010.9 |
| 20260503222205 | 16 | 234 | 17.7 | 32.2 | 0.00 | 0.00 | 0.00 | 55 | 1010.9 |
| 20260503222004 | 16 | 235 | 17.7 | 32.2 | 0.00 | 0.00 | 0.00 | 57 | 1011.0 |
| 20260503221804 | 16 | 234 | 12.9 | 29.0 | 0.00 | 0.00 | 0.00 | 58 | 1011.1 |
| 20260503221604 | 15 | 231 | 14.5 | 29.0 | 0.00 | 0.00 | 0.00 | 57 | 1011.2 |
| 20260503221404 | 15 | 228 | 20.9 | 29.0 | 0.00 | 0.00 | 0.00 | 59 | 1011.2 |
| 20260503221204 | 15 | 225 | 17.7 | 29.0 | 0.00 | 0.00 | 0.00 | 59 | 1011.3 |
| 20260503221004 | 15 | 225 | 12.9 | 22.5 | 0.00 | 0.00 | 0.00 | 60 | 1011.3 |
| 20260503220804 | 15 | 226 | 11.3 | 22.5 | 0.00 | 0.00 | 0.00 | 59 | 1011.2 |
| 20260503220604 | 15 | 231 | 14.5 | 22.5 | 0.00 | 0.00 | 0.00 | 60 | 1011.3 |
| 20260503220404 | 15 | 236 | 14.5 | 22.5 | 0.00 | 0.00 | 0.00 | 60 | 1011.3 |
| 20260503220204 | 15 | 244 | 12.9 | 22.5 | 0.00 | 0.00 | 0.00 | 60 | 1011.3 |
| 20260503220004 | 15 | 253 | 6.4 | 16.1 | 0.00 | 0.00 | 0.00 | 63 | 1011.4 |
| 20260503215804 | 15 | 256 | 11.3 | 16.1 | 0.00 | 0.00 | 0.00 | 67 | 1011.4 |
| 20260503215625 | 15 | 259 | 11.3 | 12.9 | 0.00 | 0.00 | 0.00 | 65 | 1011.4 |
| 20260503215404 | 14 | 265 | 4.8 | 11.3 | 0.00 | 0.00 | 0.00 | 61 | 1011.4 |
| 20260503215204 | 14 | 257 | 4.8 | 11.3 | 0.00 | 0.00 | 0.00 | 64 | 1011.4 |
| 20260503215025 | 14 | 248 | 6.4 | 11.3 | 0.00 | 0.00 | 0.00 | 64 | 1011.4 |
| 20260503214804 | 13 | 243 | 8.0 | 11.3 | 0.00 | 0.00 | 0.00 | 67 | 1011.6 |
| 20260503214625 | 13 | 243 | 6.4 | 11.3 | 0.00 | 0.00 | 0.00 | 66 | 1011.6 |
| 20260503214404 | 13 | 248 | 8.0 | 11.3 | 0.00 | 0.00 | 0.00 | 67 | 1011.6 |
| 20260503214204 | 13 | 256 | 4.8 | 11.3 | 0.00 | 0.00 | 0.00 | 68 | 1011.6 |
| 20260503214004 | 13 | 268 | 6.4 | 11.3 | 0.00 | 0.00 | 0.00 | 66 | 1011.6 |
| 20260503213804 | 13 | 276 | 8.0 | 11.3 | 0.00 | 0.00 | 0.00 | 66 | 1011.7 |
| 20260503213604 | 13 | 289 | 6.4 | 9.7 | 0.00 | 0.00 | 0.00 | 65 | 1011.7 |
| 20260503213425 | 13 | 298 | 4.8 | 8.0 | 0.00 | 0.00 | 0.00 | 64 | 1011.8 |
| 20260503213204 | 13 | 314 | 4.8 | 9.7 | 0.00 | 0.00 | 0.00 | 64 | 1011.8 |
| 20260503213004 | 13 | 331 | 3.2 | 11.3 | 0.00 | 0.00 | 0.00 | 63 | 1011.7 |
| 20260503212804 | 13 | 338 | 3.2 | 12.9 | 0.00 | 0.00 | 0.00 | 62 | 1011.8 |
| 20260503212604 | 13 | 347 | 3.2 | 12.9 | 0.00 | 0.00 | 0.00 | 61 | 1011.8 |
| 20260503212404 | 13 | 353 | 6.4 | 14.5 | 0.00 | 0.00 | 0.00 | 60 | 1011.9 |
| 20260503212204 | 13 | 357 | 8.0 | 14.5 | 0.00 | 0.00 | 0.00 | 60 | 1011.9 |
| 20260503212004 | 14 | 357 | 6.4 | 14.5 | 0.00 | 0.00 | 0.00 | 61 | 1011.9 |
| 20260503211804 | 14 | 357 | 8.0 | 14.5 | 0.00 | 0.00 | 0.00 | 60 | 1012.0 |
| 20260503211604 | 14 | 353 | 8.0 | 14.5 | 0.00 | 0.00 | 0.00 | 59 | 1011.9 |
| 20260503211425 | 15 | 346 | 8.0 | 14.5 | 0.00 | 0.00 | 0.00 | 59 | 1012.0 |
| 20260503211204 | 15 | 333 | 4.8 | 12.9 | 0.00 | 0.00 | 0.00 | 56 | 1012.0 |
| 20260503211004 | 15 | 335 | 3.2 | 12.9 | 0.00 | 0.00 | 0.00 | 53 | 1012.0 |
| 20260503210804 | 15 | 339 | 3.2 | 12.9 | 0.00 | 0.00 | 0.00 | 52 | 1012.0 |
| 20260503210604 | 15 | 343 | 6.4 | 12.9 | 0.00 | 0.00 | 0.00 | 52 | 1012.0 |
| 20260503210404 | 15 | 345 | 9.7 | 12.9 | 0.00 | 0.00 | 0.00 | 52 | 1012.2 |
| 20260503210204 | 15 | 353 | 8.0 | 12.9 | 0.00 | 0.00 | 0.00 | 50 | 1012.2 |
| 20260503210005 | 15 | 356 | 8.0 | 12.9 | 0.00 | 0.00 | 0.00 | 50 | 1012.2 |
| 20260503205804 | 15 | 360 | 6.4 | 11.3 | 0.00 | 0.00 | 0.00 | 49 | 1012.1 |
| 20260503205625 | 15 | 2 | 4.8 | 11.3 | 0.00 | 0.00 | 0.00 | 49 | 1012.1 |
| 20260503205404 | 15 | 21 | 4.8 | 8.0 | 0.00 | 0.00 | 0.00 | 48 | 1012.1 |
| 20260503205204 | 15 | 78 | 0.0 | 3.2 | 0.00 | 0.00 | 0.00 | 47 | 1012.0 |
| 20260503205025 | 16 | 114 | 0.0 | 6.4 | 0.00 | 0.00 | 0.00 | 47 | 1012.0 |
| 20260503204825 | 16 | 121 | 1.6 | 6.4 | 0.00 | 0.00 | 0.00 | 46 | 1011.9 |
| 20260503204604 | 16 | 131 | 0.0 | 6.4 | 0.00 | 0.00 | 0.00 | 47 | 1011.9 |
| 20260503204404 | 16 | 127 | 0.0 | 6.4 | 0.00 | 0.00 | 0.00 | 49 | 1011.7 |
| 20260503204204 | 16 | 125 | 1.6 | 6.4 | 0.00 | 0.00 | 0.00 | 47 | 1011.7 |
| 20260503204005 | 16 | 101 | 1.6 | 6.4 | 0.00 | 0.00 | 0.00 | 47 | 1011.7 |
| 20260503203804 | 16 | 92 | 3.2 | 6.4 | 0.00 | 0.00 | 0.00 | 48 | 1011.7 |
| 20260503203604 | 16 | 78 | 1.6 | 6.4 | 0.00 | 0.00 | 0.00 | 49 | 1011.7 |
| 20260503203425 | 16 | 65 | 0.0 | 6.4 | 0.00 | 0.00 | 0.00 | 48 | 1011.7 |
| 20260503203204 | 16 | 66 | 3.2 | 6.4 | 0.00 | 0.00 | 0.00 | 47 | 1011.8 |
| 20260503203004 | 16 | 74 | 3.2 | 6.4 | 0.00 | 0.00 | 0.00 | 50 | 1011.8 |
| 20260503202804 | 16 | 85 | 0.0 | 6.4 | 0.00 | 0.00 | 0.00 | 48 | 1011.7 |
| 20260503202604 | 16 | 108 | 3.2 | 6.4 | 0.00 | 0.00 | 0.00 | 49 | 1011.8 |
| 20260503202404 | 16 | 166 | 1.6 | 6.4 | 0.00 | 0.00 | 0.00 | 47 | 1011.8 |
| 20260503202225 | 16 | 191 | 1.6 | 6.4 | 0.00 | 0.00 | 0.00 | 47 | 1011.9 |